Regional Weather Roundup
Issued by NWS

Home | Current Version | Previous Version | Text Only | Print | Product List | Glossary Off
Versions: 1 2 3 4 5 6 7 8 9 10 11 12 13 14 15 16 17 18 19 20 21 22 23 24 25 26 27 28 29 30 31 32 33 34 35 36 37 38 39 40 41 42 43 44 45 46 47 48 49 50

000
ASUS43 KFSD 311210
RWRSD

WEATHER ROUNDUP FOR SOUTH DAKOTA
NATIONAL WEATHER SERVICE SIOUX FALLS SD
600 AM CST SAT JAN 31 2015

NOTE: "FAIR" INDICATES FEW OR NO CLOUDS BELOW 12,000 FEET WITH NO
SIGNIFICANT WEATHER AND/OR OBSTRUCTIONS TO VISIBILITY.


SDZ001>005-009-010-012>017-311300-
NORTHWEST AND NORTH CENTRAL SOUTH DAKOTA

CITY           SKY/WX    TMP DP  RH WIND       PRES   REMARKS
BUFFALO          N/A     21  18  88 E10       29.97R WCI  10
FAITH            N/A     24  21  88 NE17      30.07R WCI  11
MOBRIDGE       CLOUDY    24  21  88 NE12      30.13F WCI  13
$$

SDZ012>016-024>037-041>051-057-063-072>074-311300-
SOUTHWEST AND SOUTH CENTRAL SOUTH DAKOTA

CITY           SKY/WX    TMP DP  RH WIND       PRES   REMARKS
RAPID CTY ARPT CLOUDY    29  23  78 NE9       30.01S WCI  20
PIERRE         FOG       26  25  96 NE8       30.09F VSB 1/2 WCI  18
CUSTER         CLOUDY    24  17  74 N5        29.94F WCI  18
ELLSWORTH AFB  MOCLDY    28  22  77 SE2       30.01S
PHILIP         CLOUDY    26  23  88 NE7       30.05F WCI  18
PINE RIDGE     CLOUDY    27  23  85 E5        30.00R WCI  22
WINNER         FAIR      29  23  78 E6        30.05F WCI  23
$$

SDZ004>011-016>023-039-040-311300-
NORTHEAST SOUTH DAKOTA

CITY           SKY/WX    TMP DP  RH WIND       PRES   REMARKS
ABERDEEN       CLOUDY    23  19  85 NE16      30.19S WCI  10
WATERTOWN      CLOUDY    22  21  96 NE18      30.12S FOG     WCI   7
SISSETON         N/A     20  17  88 NE22      30.20F WCI   3
$$

SDZ017-020-022-023-036>040-048>070-311300-
SOUTHEAST SOUTH DAKOTA

CITY           SKY/WX    TMP DP  RH WIND       PRES   REMARKS
SIOUX FALLS    MOCLDY    25  22  88 NE10      30.11R WCI  15
HURON          CLOUDY    26  24  92 NE13      30.13S FOG     WCI  15
CHAMBERLAIN    CLOUDY    26  25  96 NE9       30.08S FOG     WCI  17
MITCHELL       MOCLDY    26  24  92 N10       30.11S WCI  16
YANKTON        MOCLDY    30  27  86 CALM      30.09S
$$

ABBREVIATIONS USED IN REMARKS
   TC - TEMPERATURE IN CELSIUS
  WCI - WIND CHILL INDEX
   HX - HEAT INDEX
  VSB - VISIBILITY




USA.gov is the U.S. government's official web portal to all federal, state and local government web resources and services.